Wind_Speed
7 10 20 20 12 13 2 6 12 7 6 10 16 13 11 16 16 19 25 28 32 36 34 31 30 32 33 36 36 34 33 30 29 29 28 25 23 18 14 12 11 10 7 5
6 17 15 10 13 12 18 12 8 7 5 9 10 16 11 18 24 28 30 31 34 31 33 33 32 31 33 38 39 35 34 33 31 31 30 29 24 19 15 13 11 10 9 6
13 2 16 13 13 16 17 19 15 7 7 11 6 14 12 13 17 19 22 25 28 33 36 36 35 34 34 35 41 38 35 35 33 32 32 29 25 22 19 16 13 9 11 9
11 17 8 14 18 17 18 15 17 15 8 8 10 13 16 14 17 19 25 28 31 33 33 35 37 38 37 37 40 40 38 36 34 33 33 34 29 28 24 19 15 12 9 10
8 9 15 18 16 15 16 8 16 18 17 13 14 8 17 8 16 19 26 30 32 33 35 38 40 40 38 35 42 40 39 39 35 36 35 34 32 28 24 22 18 17 15 12
6 6 5 10 16 16 4 10 10 13 14 18 23 15 15 17 17 19 22 29 33 34 36 36 35 35 36 35 37 41 41 40 39 38 37 35 33 29 26 24 22 21 19 18
4 5 4 13 9 11 15 10 6 8 9 17 19 17 19 13 16 17 20 32 36 36 36 36 36 37 37 40 38 42 42 42 41 41 40 37 34 32 29 25 24 24 25 24
2 7 1 8 15 12 16 18 8 13 10 13 16 14 15 23 25 20 22 27 27 32 35 37 38 39 41 44 46 45 45 44 45 44 43 41 37 35 32 30 28 23 23 25
2 6 6 9 9 8 16 19 20 15 4 10 14 18 12 13 18 28 22 18 27 33 37 39 39 40 43 44 46 46 44 43 46 47 46 43 41 39 36 31 29 27 22 20
3 7 2 8 9 14 13 13 17 13 18 19 7 19 12 22 17 19 22 21 25 29 32 34 38 42 45 48 48 46 44 44 45 45 45 44 42 39 36 33 30 29 25 19
4 4 2 8 4 10 14 14 16 18 19 11 16 9 11 19 21 19 19 30 28 29 32 34 40 46 49 45 48 50 48 46 45 45 45 45 42 39 37 35 31 30 27 22
4 3 5 13 17 22 17 11 22 14 23 19 16 13 4 14 21 25 27 26 31 31 33 36 37 37 40 47 49 51 52 51 48 45 45 45 43 38 38 37 34 31 29 26
7 3 5 11 11 18 11 17 17 24 21 23 17 14 14 8 9 15 21 26 21 28 30 31 29 35 42 46 50 50 48 51 50 48 47 46 45 43 39 36 35 33 30 29
7 4 7 12 17 11 10 12 16 20 21 21 21 21 22 14 8 10 11 15 15 19 24 25 27 35 42 44 49 51 50 44 46 47 46 47 47 44 40 36 34 32 31 31
7 7 8 14 20 24 26 26 26 20 23 22 22 22 24 22 23 21 18 13 7 11 16 25 33 38 41 42 45 48 47 47 44 45 45 45 44 44 42 41 37 32 31 32
8 6 9 18 23 23 28 29 26 23 24 19 17 15 2 11 19 17 14 12 15 16 16 18 28 36 40 44 48 46 50 47 45 44 42 41 41 42 41 41 39 37 33 33
9 5 7 21 17 17 22 30 25 21 17 21 22 15 7 4 3 1 5 10 15 17 18 20 25 34 40 43 48 48 47 46 44 42 39 38 37 38 38 37 38 37 35 34
9 11 7 14 15 11 9 8 26 12 7 2 8 3 7 9 6 7 7 11 17 20 22 24 27 33 42 42 41 41 42 47 44 42 39 35 34 34 34 36 37 36 35 36
18 8 6 5 7 12 11 5 23 16 8 10 6 5 2 6 8 6 13 12 17 21 26 28 30 35 38 41 43 44 43 44 43 43 40 37 36 34 35 36 35 35 35 36
18 13 7 4 7 5 5 4 6 8 6 12 10 11 6 5 8 2 16 17 15 15 16 20 24 26 35 40 43 44 45 43 42 43 39 35 33 32 31 30 32 32 32 33
9 5 13 13 8 9 11 11 8 6 4 9 10 13 19 8 4 9 14 17 13 13 15 6 19 27 35 41 43 43 42 40 39 39 38 35 32 33 30 29 30 31 32 32
6 6 7 8 6 9 23 5 4 6 8 6 12 18 16 18 15 20 28 30 27 24 19 11 16 25 29 31 33 36 38 36 36 35 32 30 29 30 30 31 31 31 31 32
2 3 2 2 1 16 8 19 14 10 9 13 16 19 15 17 26 35 37 35 35 35 30 22 17 20 23 28 29 30 30 32 29 27 28 27 26 28 29 28 29 29 29 29
2 6 2 3 4 13 10 16 16 14 12 12 15 19 21 19 23 27 39 43 40 37 36 28 26 24 19 16 19 19 22 25 26 28 28 26 25 25 25 26 26 28 29 29
5 8 6 4 8 17 17 20 20 18 14 14 13 16 23 26 23 22 30 39 38 39 38 34 31 29 25 21 17 13 13 17 17 23 25 26 26 26 27 26 26 26 27 25
13 6 5 3 17 9 13 24 18 19 18 15 16 14 16 20 20 22 26 29 33 35 37 36 32 28 23 19 16 13 12 12 14 14 17 20 23 26 28 28 26 26 26 23
Wind_Direction
175 200 213 208 211 225 276 250 239 216 222 210 223 241 205 182 191 188 189 189 192 197 195 197 200 200 204 205 206 202 197 196 194 192 191 193 198 197 198 194 188 191 186 166
176 229 224 234 209 223 243 259 267 262 275 230 214 234 215 193 196 198 191 194 195 196 195 199 201 203 205 208 208 207 203 199 198 198 197 197 200 203 201 197 197 202 195 191
208 197 207 205 206 217 231 239 241 276 337 250 254 244 220 210 212 206 208 203 203 201 196 199 202 204 206 208 208 208 206 204 202 203 204 205 208 210 208 204 203 206 204 202
224 234 193 215 224 214 232 228 243 254 294 241 217 247 223 218 208 207 207 204 206 204 205 203 203 205 207 210 213 212 210 207 207 207 211 213 213 213 214 212 213 216 218 218
192 200 211 226 226 218 239 224 226 238 249 273 245 244 240 204 217 211 212 210 210 206 205 205 207 208 207 208 213 214 214 213 214 211 213 215 217 219 223 223 221 227 234 237
259 305 267 220 218 199 211 225 240 235 237 241 238 238 238 218 217 217 214 213 212 208 208 209 209 209 209 208 214 217 216 215 216 214 213 215 218 219 221 223 225 229 236 239
322 244 223 227 197 198 212 205 200 213 213 236 227 231 237 228 219 223 211 211 212 207 206 206 205 206 207 206 210 220 218 217 217 216 215 218 221 226 228 229 231 233 236 240
328 214 291 356 239 212 209 204 208 212 228 234 213 235 222 226 241 233 227 223 208 207 208 208 205 205 207 213 219 224 222 218 218 219 220 221 224 228 230 233 234 233 239 244
289 249 317 324 315 304 208 213 215 260 261 256 228 234 268 231 234 228 233 211 203 205 207 207 206 207 210 214 220 222 223 221 219 219 221 221 224 228 231 232 234 238 240 244
156 287 318 339 327 237 235 212 207 224 243 238 216 225 230 212 228 224 223 214 210 209 209 210 208 208 213 218 218 220 223 221 218 220 222 222 224 226 230 232 234 236 238 236
189 235 257 320 237 260 222 230 219 223 234 238 241 234 222 229 211 218 221 222 217 210 209 210 211 211 217 214 216 219 221 222 223 222 223 225 225 228 230 233 233 233 233 232
186 178 281 278 275 272 276 281 243 225 228 234 263 236 147 226 217 217 222 228 224 220 214 217 213 208 207 209 214 220 222 222 222 224 225 228 228 229 233 234 235 231 231 230
173 188 294 294 243 233 231 245 245 251 237 233 230 222 259 271 236 241 238 224 219 218 222 217 208 206 204 207 213 217 222 220 221 224 226 228 231 230 231 232 235 235 228 230
177 216 243 260 289 320 299 283 295 270 226 236 231 233 236 247 273 268 249 245 235 224 224 214 210 208 206 208 210 214 219 216 218 220 224 227 228 230 230 231 232 232 230 229
185 241 244 260 272 282 277 274 275 271 257 227 232 228 233 239 257 255 269 280 265 242 226 213 212 214 212 207 211 213 214 221 218 221 221 224 226 228 230 232 231 228 230 232
180 253 291 275 278 270 266 259 257 254 251 250 252 240 278 254 257 259 266 275 275 271 254 230 222 218 216 212 216 221 219 223 221 220 220 222 224 227 228 230 232 233 232 233
185 220 250 266 288 287 258 243 237 242 231 216 217 233 308 263 216 229 291 288 281 274 269 256 232 222 225 222 220 219 221 219 219 218 219 220 221 222 224 226 228 230 231 232
204 202 237 274 287 243 236 236 199 198 104 134 173 293 283 265 151 99 18 322 298 289 280 266 249 229 228 223 211 213 211 218 217 217 216 217 219 220 220 221 224 225 227 229
217 184 240 256 267 295 144 111 153 167 82 37 43 344 250 189 188 216 1 336 305 289 279 268 250 230 218 210 208 210 210 215 215 219 217 216 215 217 219 221 221 224 226 229
196 199 209 229 265 260 104 317 245 219 95 14 18 11 5 208 207 16 356 354 326 311 285 257 226 216 204 202 199 206 209 212 216 220 218 215 214 216 218 221 223 225 228 232
169 175 218 237 242 271 339 298 219 210 93 349 14 17 52 71 38 333 11 26 17 3 346 227 188 194 196 188 196 205 206 213 216 215 216 215 214 214 215 217 220 223 227 231
164 206 205 216 234 249 324 195 135 100 55 20 22 25 61 61 53 47 50 45 43 41 44 68 155 174 189 196 201 207 213 214 214 214 214 215 217 217 217 219 222 226 227 231
186 274 273 216 264 286 5 64 75 61 44 12 20 28 43 50 45 48 46 42 45 54 52 65 94 130 155 182 197 204 209 215 213 209 209 212 214 214 217 217 218 221 223 226
329 344 298 275 233 329 27 31 38 26 18 14 30 37 37 32 36 40 45 46 46 53 53 57 72 90 113 151 178 189 207 216 212 204 203 206 209 209 212 215 218 219 220 219
332 322 303 259 339 347 351 3 8 8 15 20 33 35 35 40 25 32 36 35 38 45 54 59 64 72 79 99 119 146 178 200 205 215 205 204 206 205 207 207 211 218 220 221
1 351 357 333 331 312 302 336 357 4 2 0 1 17 28 20 17 16 23 23 28 36 40 51 56 62 66 76 86 103 129 146 169 189 207 211 208 205 206 207 209 215 222 225
Height
1495 1495 1487 1491 1497 1496 1495 1495 1490 1487 1481 1482 1482 1483 1488 1495 1501 1504 1508 1511 1515 1518 1525 1532 1537 1541 1545 1550 1555 1559 1563 1568 1572 1576 1580 1584 1587 1590 1593 1596 1598 1600 1601 1603
1495 1490 1487 1493 1498 1500 1499 1499 1495 1486 1486 1484 1481 1481 1481 1490 1490 1493 1497 1503 1508 1516 1521 1527 1532 1537 1541 1545 1550 1556 1560 1565 1570 1574 1578 1581 1585 1589 1592 1595 1597 1599 1601 1602
1485 1484 1484 1492 1495 1499 1497 1498 1496 1496 1489 1482 1481 1480 1478 1483 1488 1494 1497 1502 1508 1510 1514 1520 1526 1531 1537 1540 1545 1551 1556 1561 1566 1571 1576 1579 1583 1587 1590 1593 1596 1598 1600 1602
1483 1481 1485 1488 1488 1493 1495 1493 1497 1496 1498 1491 1478 1487 1471 1472 1480 1486 1491 1495 1498 1504 1509 1514 1519 1524 1529 1534 1541 1547 1553 1558 1563 1567 1572 1576 1579 1582 1587 1591 1594 1597 1599 1601
1476 1476 1480 1483 1485 1488 1489 1490 1494 1496 1498 1498 1486 1490 1464 1468 1474 1476 1480 1485 1490 1495 1501 1505 1510 1516 1523 1530 1535 1542 1548 1553 1559 1563 1568 1572 1576 1580 1584 1588 1591 1594 1597 1599
1479 1480 1476 1473 1475 1483 1484 1490 1491 1492 1494 1500 1484 1487 1465 1461 1463 1465 1471 1478 1483 1488 1493 1499 1507 1514 1519 1525 1529 1535 1541 1547 1553 1558 1563 1568 1572 1576 1580 1584 1588 1591 1594 1596
1483 1475 1474 1474 1475 1476 1482 1488 1496 1504 1500 1486 1468 1480 1467 1450 1454 1455 1460 1466 1471 1479 1485 1492 1499 1505 1510 1515 1521 1527 1534 1540 1547 1552 1557 1563 1568 1572 1576 1580 1584 1587 1589 1592
1492 1475 1475 1482 1469 1471 1474 1478 1481 1495 1483 1472 1465 1461 1452 1449 1452 1454 1455 1458 1467 1474 1479 1484 1489 1494 1500 1505 1512 1518 1525 1532 1539 1545 1551 1557 1563 1567 1571 1575 1579 1582 1585 1588
1494 1488 1480 1482 1481 1480 1465 1471 1465 1471 1472 1470 1447 1448 1444 1443 1444 1446 1451 1455 1458 1463 1468 1473 1480 1485 1491 1498 1503 1509 1517 1525 1532 1538 1544 1550 1556 1561 1565 1569 1574 1578 1581 1584
1502 1494 1485 1482 1479 1468 1466 1456 1475 1472 1480 1475 1449 1447 1442 1436 1438 1438 1441 1446 1450 1454 1461 1467 1472 1476 1481 1488 1496 1504 1511 1517 1524 1532 1538 1543 1549 1554 1559 1564 1568 1572 1577 1580
1502 1499 1484 1485 1478 1464 1458 1465 1455 1455 1453 1455 1462 1443 1424 1426 1426 1430 1435 1438 1441 1446 1451 1455 1459 1464 1470 1480 1488 1494 1502 1509 1516 1524 1531 1537 1542 1548 1553 1557 1562 1567 1572 1575
1501 1504 1497 1483 1478 1475 1479 1476 1452 1451 1454 1446 1446 1437 1419 1417 1418 1421 1425 1429 1433 1437 1440 1444 1449 1457 1465 1469 1476 1483 1491 1500 1507 1515 1522 1528 1535 1541 1546 1550 1555 1560 1565 1570
1501 1503 1491 1472 1458 1460 1467 1462 1465 1444 1439 1437 1448 1443 1420 1420 1420 1420 1421 1422 1427 1430 1435 1438 1447 1450 1455 1460 1466 1474 1480 1488 1497 1506 1513 1520 1526 1532 1537 1543 1548 1554 1559 1563
1500 1498 1493 1486 1472 1476 1479 1466 1466 1454 1433 1434 1424 1434 1423 1417 1417 1416 1418 1419 1423 1426 1429 1435 1440 1442 1446 1451 1457 1463 1470 1479 1488 1495 1503 1509 1516 1523 1530 1536 1541 1546 1552 1556
1497 1493 1490 1489 1485 1482 1479 1475 1469 1466 1440 1423 1423 1420 1418 1416 1412 1415 1416 1416 1418 1420 1423 1426 1428 1432 1437 1444 1449 1457 1465 1472 1479 1485 1493 1499 1508 1515 1522 1528 1533 1539 1545 1549
1493 1487 1487 1484 1476 1476 1468 1461 1458 1455 1445 1429 1422 1413 1411 1415 1413 1413 1415 1416 1415 1417 1418 1421 1423 1426 1430 1434 1437 1444 1452 1461 1470 1477 1483 1492 1499 1506 1513 1519 1525 1531 1537 1542
1489 1491 1491 1473 1467 1464 1447 1434 1440 1439 1426 1421 1416 1409 1418 1414 1412 1415 1416 1415 1413 1413 1413 1413 1416 1418 1420 1425 1429 1435 1442 1452 1461 1469 1477 1484 1491 1497 1504 1511 1516 1522 1528 1534
1483 1489 1488 1470 1473 1454 1412 1405 1414 1421 1425 1416 1412 1417 1417 1414 1414 1415 1415 1414 1410 1407 1405 1404 1404 1407 1411 1416 1424 1432 1439 1443 1453 1462 1469 1476 1483 1489 1496 1502 1507 1513 1520 1525
1473 1482 1480 1474 1461 1443 1413 1408 1407 1406 1425 1424 1419 1418 1413 1413 1413 1413 1414 1412 1409 1404 1398 1393 1392 1394 1402 1409 1416 1423 1432 1437 1447 1455 1462 1468 1475 1482 1488 1493 1499 1506 1512 1517
1466 1473 1480 1473 1457 1425 1415 1417 1418 1415 1417 1426 1422 1417 1410 1406 1406 1413 1412 1408 1403 1398 1393 1385 1383 1387 1394 1402 1411 1417 1424 1430 1438 1446 1454 1462 1469 1475 1481 1488 1494 1500 1506 1511
1463 1470 1469 1466 1460 1442 1423 1417 1414 1408 1427 1427 1425 1421 1413 1412 1419 1416 1410 1404 1398 1389 1382 1376 1380 1384 1388 1396 1405 1411 1420 1424 1431 1441 1449 1456 1462 1468 1476 1483 1488 1493 1498 1503
1457 1459 1455 1457 1453 1440 1427 1416 1411 1425 1427 1426 1424 1420 1419 1420 1419 1414 1407 1400 1395 1391 1382 1379 1382 1386 1390 1397 1403 1410 1415 1422 1429 1437 1444 1451 1457 1463 1469 1474 1480 1485 1490 1494
1450 1455 1447 1448 1442 1437 1432 1423 1425 1426 1426 1425 1422 1421 1422 1421 1416 1413 1409 1404 1398 1393 1389 1388 1388 1388 1392 1400 1406 1410 1416 1419 1427 1434 1439 1445 1451 1457 1462 1467 1472 1477 1481 1485
1454 1450 1448 1444 1439 1435 1428 1428 1427 1426 1426 1425 1424 1423 1422 1421 1418 1418 1412 1408 1402 1397 1395 1394 1391 1390 1395 1401 1408 1409 1417 1417 1425 1428 1433 1439 1444 1450 1455 1460 1465 1470 1473 1477
1459 1455 1451 1443 1436 1426 1426 1430 1429 1427 1426 1425 1425 1424 1424 1421 1423 1421 1417 1412 1410 1405 1399 1398 1398 1398 1400 1404 1407 1413 1414 1420 1421 1428 1430 1433 1437 1442 1446 1453 1457 1461 1465 1471
1461 1458 1454 1447 1446 1443 1435 1432 1431 1429 1428 1428 1426 1424 1425 1424 1423 1422 1419 1417 1413 1408 1406 1403 1402 1404 1408 1410 1413 1416 1417 1419 1422 1426 1430 1434 1437 1439 1441 1442 1447 1453 1458 1464